Location: Middle Street
(51.7167°N, 0.0333°E)
Time: 19:21:58
(UTC+00:00)

Cosmos 1538 Rocket - Pass Details

Date: 20 January 2021
Orbit: 753 x 791 km, 74.0° (Epoch: 27 February)

Event Time Altitude Azimuth Distance (km) Brightness Sun altitude
Rises 17:05:48 0° 337° (NNW) 3,225 7.2 -6.0°
Reaches altitude 10° 17:08:18 10° 345° (NNW) 2,293 6.4 -6.3°
Maximum altitude 17:13:13 41° 56° (NE) 1,082 4.4 -7.0°
Drops below altitude 10° 17:18:06 10° 127° (SE) 2,276 6.2 -7.7°
Sets 17:20:34 0° 134° (SE) 3,199 7.0 -8.1°
